Flag for Austria Weather past 2 weeks in Schwechat, Lower Austria, Austria

Now
52 °F

Partly sunny.


Feels Like: 46 °F
Forecast: 43 / 53 °F
Wind: 21 mph from West

Location: Vienna Schwechat-Flughafen Airport

Current Time: Dec 22, 2014 at 3:32:30 PM

Latest Report: Dec 22, 2014 at 2:50 PM


Visibility: N/A

Pressure: 30.09 "Hg

Humidity: 50%

Dew point: 34 °F

Location of SchwechatLocation

Historic Weather in Schwechat — Graph

°F

Schwechat temperature yesterday

Maximum temperature yesterday: 46 °F (at 11:50 AM)
Minimum temperature yesterday: 39 °F (at 7:50 AM)
Average temperature yesterday: 43 °F

Past Weeks' High & Low Weather Summary

 TemperatureHumidityPressure
High61 °F (Dec 19, 1:20 PM)100% (Dec 7, 2:20 PM)30.39 "Hg (Dec 7, 2:20 PM)
Low28 °F (Dec 10, 7:20 AM)46% (Dec 21, 2:20 PM)29.83 "Hg (Dec 12, 5:50 PM)
Average41 °F80%30.07 "Hg
* Reported Dec 7 2:20 PM — Dec 22 2:20 PM, Schwechat, Weather by CustomWeather, © 2014

Note: Actual official high and low records may vary slightly from our data, if they occured in-between our weather recording intervals... More about our weather records

Advertising

Schwechat weather history for previous 24 hours

 ConditionsComfort  
Time TempWeatherWind HumidityBarometerVisibility
2:20 PM
Dec 22
50 °FPartly sunny.18 mph50%30.09 "HgN/A
1:50 PM50 °FLight rain. Partly sunny.18 mph54%30.12 "HgN/A
1:20 PM48 °FPartly sunny.20 mph58%30.12 "HgN/A
12:50 PM48 °FBroken clouds.22 mph54%30.12 "HgN/A
12:20 PM48 °FBroken clouds.17 mph50%30.12 "HgN/A
11:50 AM48 °FPartly sunny.20 mph50%30.15 "HgN/A
11:20 AM48 °FPartly sunny.16 mph50%30.15 "HgN/A
10:50 AM46 °FPartly sunny.16 mph57%30.15 "HgN/A
10:20 AM46 °FPartly sunny.18 mph57%30.15 "HgN/A
9:50 AM46 °FPartly sunny.22 mph57%30.18 "HgN/A
9:20 AM46 °FBroken clouds.23 mph57%30.15 "HgN/A
8:50 AM45 °FBroken clouds.21 mph61%30.18 "HgN/A
8:20 AM45 °FBroken clouds.23 mph61%30.18 "HgN/A
7:50 AM45 °FPartly sunny.23 mph61%30.18 "HgN/A
7:20 AM45 °FPassing clouds.22 mph61%30.18 "HgN/A
6:50 AM45 °FPassing clouds.25 mph61%30.18 "HgN/A
6:20 AM45 °FPartly cloudy.23 mph61%30.21 "HgN/A
5:50 AM45 °FPassing clouds.18 mph61%30.21 "HgN/A
5:20 AM45 °FPassing clouds.16 mph61%30.21 "HgN/A
4:20 AM43 °FPassing clouds.16 mph66%30.24 "HgN/A
3:50 AM45 °FPassing clouds.16 mph61%30.24 "HgN/A
3:20 AM43 °FClear.18 mph61%30.24 "Hg10 mi
2:50 AM43 °FClear.10 mph61%30.27 "Hg10 mi
2:20 AM43 °FClear.12 mph66%30.27 "Hg10 mi
1:50 AM43 °FClear.10 mph66%30.30 "Hg10 mi
1:20 AM43 °FClear.10 mph61%30.30 "Hg10 mi
12:50 AM43 °FClear.10 mph61%30.33 "Hg10 mi
12:20 AM39 °FPassing clouds.5 mph70%30.33 "HgN/A
11:50 PM
Dec 21
39 °FPassing clouds.3 mph70%30.33 "HgN/A
11:20 PM43 °FClear.8 mph66%30.33 "Hg10 mi
10:20 PM43 °FClear.14 mph66%30.36 "Hg10 mi
9:50 PM45 °FPassing clouds.16 mph61%30.36 "HgN/A
9:20 PM43 °FClear.16 mph66%30.36 "Hg10 mi
8:50 PM43 °FClear.14 mph66%30.36 "Hg10 mi
8:20 PM43 °FPassing clouds.12 mph66%30.36 "HgN/A
7:50 PM43 °FPassing clouds.15 mph66%30.36 "HgN/A
7:20 PM43 °FPassing clouds.16 mph71%30.39 "HgN/A
6:50 PM45 °FPassing clouds.15 mph61%30.36 "HgN/A
6:20 PM43 °FPartly cloudy.10 mph66%30.39 "HgN/A
5:50 PM43 °FPartly cloudy.14 mph66%30.36 "HgN/A
5:20 PM43 °FPassing clouds.12 mph66%30.36 "HgN/A
4:50 PM43 °FPassing clouds.15 mph66%30.36 "HgN/A
4:20 PM45 °FPassing clouds.15 mph57%30.36 "HgN/A
3:50 PM45 °FScattered clouds.20 mph57%30.36 "HgN/A
3:20 PM45 °FScattered clouds.18 mph57%30.36 "HgN/A
Weather by CustomWeather, © 2014

See weather overviewHow to use our weather pages